Hourly Data Report for July 13, 2021

WINNIPEG THE FORKS
MANITOBA
Current Station Operator: ECCC - MSC

49°53'18.008" N
97°07'46.007" W
230.00 m
5023262
71579
XWN

Download Data

Hourly Data (July 2021)
Hourly Data Report for July 13, 2021
TIME
LST
Temp Definition
°C
Dew Point Definition
°C
Rel Hum Definition
%
Precip. Amount Definition
mm

Wind Dir Definition
10's deg

Wind Spd Definition
km/h
Visibility Definition
km
Stn Press Definition
kPa
Hmdx Definition


Wind Chill Definition


Weather Definition


00:00 19.6 13.8 69 0.0 34 6   98.63     LegendNANA
01:00 19.4 14.0 71 0.0 33 5   98.64     LegendNANA
02:00 19.0 13.7 71 0.0 29 2   98.67     LegendNANA
03:00 18.3 14.0 76 0.0 29 2   98.67     LegendNANA
04:00 18.3 13.9 76 0.0 25 3   98.70     LegendNANA
05:00 17.9 13.8 77 0.0 21 4   98.73     LegendNANA
06:00 18.1 13.5 75 0.0 23 4   98.75     LegendNANA
07:00 19.6 14.3 71 0.0 28 4   98.77     LegendNANA
08:00 21.2 15.0 68 0.0 33 3   98.78 25   LegendNANA
09:00 22.0 15.2 66 0.0 34 7   98.81 26   LegendNANA
10:00 23.3 15.8 63 0.0 2 8   98.84 28   LegendNANA
11:00 24.3 15.5 58 0.0 35 10   98.85 29   LegendNANA
12:00 24.5 13.6 51 0.0 3 10   98.88 28   LegendNANA
13:00 25.0 13.7 49 0.0 1 9   98.88 28   LegendNANA
14:00 25.7 13.7 47 0.0 1 9   98.91 29   LegendNANA
15:00 25.2 13.0 47 0.0 1 10   98.92 28   LegendNANA
16:00 25.4 12.1 43 0.0 1 10   98.93 28   LegendNANA
17:00 24.6 10.0 40 0.0 2 11   98.94 26   LegendNANA
18:00 24.3 9.4 39 0.0 4 6   98.96 25   LegendNANA
19:00 23.8 8.8 38 0.0 3 7   98.95 25   LegendNANA
20:00 22.4 8.7 41 0.0 3 4   98.98     LegendNANA
21:00 21.1 8.7 45 0.0 3 3   99.02     LegendNANA
22:00 20.0 9.0 49 0.0 3 2   99.01     LegendNANA
23:00 19.4 9.2 52 0.0 2 2   99.02     LegendNANA

Notes on Data Quality.

Legend

  • E = Estimated
  • M = Missing
  • NA = Not Available*
  • [empty] = Indicates an unobserved value
Date modified: